Location: Unspecified
(0.0000°N, 0.0000°E)
Time: 01:37:55
(UTC+02:00)

ARIANE 5 R/B - Visible Passes

Search period start: 17 October 2017 00:00
Search period end: 27 October 2017 00:00
Orbit: 549 x 35577 km, 4.8° (Epoch: 16 October)

Date Brightness Start Highest point End Pass type
(mag) Time Alt. Az. Time Alt. Az. Time Alt. Az.
17 Oct 10.0 22:44:29 10° E 01:43:14 25° E 03:07:28 10° E visible
19 Oct 6.6 01:54:43 10° W 03:39:25 53° W 11:45:18 10° E visible
19 Oct 8.1 22:44:05 10° W 23:17:25 89° S 08:44:09 10° E visible
20 Oct 5.9 19:42:24 10° W 19:50:14 79° N 05:35:47 10° E visible
21 Oct 10.3 23:40:57 10° E 00:45:57 13° E 01:32:39 10° E visible
22 Oct 9.6 04:35:14 10° W 05:43:32 18° W 07:41:41 10° W visible
23 Oct 7.3 00:52:03 10° W 02:38:39 67° W 10:47:19 10° E visible
23 Oct 7.7 21:45:13 10° W 22:05:39 89° N 07:45:03 10° E visible
24 Oct 5.3 18:44:28 10° WNW 18:50:18 74° N 04:32:02 10° E visible
26 Oct 9.3 03:14:37 10° W 04:45:43 31° W 08:27:03 10° W visible
